Location: Moscow Pond
(43.6842°N, 73.2366°W)
Time: 05:27:38
(UTC+00:00)

Cosmos 2333 Rocket - Pass Details

Date: 08 November 2025
Orbit: 837 x 865 km, 70.8° (Epoch: 10 December)

Event Time Altitude Azimuth Distance (km) Brightness Sun altitude
Exits shadow 08:45:35 18° 2° (N) 1,980 4.2 -31.4°
Drops below altitude 10° 08:47:13 10° 11° (NNE) 2,501 4.8 -31.1°
Sets 08:49:54 0° 20° (NNE) 3,446 5.7 -30.6°
